West Memphis, AR

7:01 AM CDT on August 24, 2016 (GMT -0500)
West Memphis Municipal

Weather History for KAWM - February, 2013

Change the Weather History Date:

Thursday, February 21, 2013

  Actual Average Record
Temperature  
Mean Temperature 38 °F -  
Max Temperature 43 °F 60 °F 86 °F (2014)
Min Temperature 32 °F 37 °F 15 °F (1963)
Degree Days  
Heating Degree Days 28    
Moisture  
Dew Point 33 °F    
Average Humidity 88    
Maximum Humidity 100    
Minimum Humidity 59    
Precipitation  
Precipitation 0.98 in - - ()
Sea Level Pressure  
Sea Level Pressure 29.90 in    
Wind  
Wind Speed 9 mph (ENE)    
Max Wind Speed 16 mph    
Max Gust Speed -    
Visibility 6 miles    
Events Rain , Thunderstorm    
Averages and records for this station are not official NWS values.
T = Trace of Precipitation, MM = Missing Value Source: NWS Daily Summary

Daily Weather History Graph

Daily Weather History Graph

Search for Another Location

Airport or City:

Trip Planner

Search our weather history database for the weather conditions in past years. The results will help you decide how hot, cold, wet, or windy it might be!

Date:

Astronomy

Feb. 21, 2013 Rise Set
Actual Time 6:39 AM CST 5:49 PM CST
Civil Twilight 6:14 AM CST 6:15 PM CST
Nautical Twilight 5:44 AM CST 6:44 PM CST
Astronomical Twilight 5:15 AM CST 7:14 PM CST
Moon 2:10 PM CST (2/21) 3:38 AM CST (2/21)
Length of Visible Light 12h 00m
Length of Day
11h 09m
Waxing Gibbous, 84% of the Moon is Illuminated
Feb 21
Waxing Gibbous
Feb 25
Full
Mar 4
Last Quarter
Mar 11
New
Mar 19
First Quarter

Hourly Weather History & Observations

Time (CST) Temp. Windchill Dew Point Humidity Pressure Visibility Wind Dir Wind Speed Gust Speed Precip Events Conditions
12:53 AM 33.1 °F 25.5 °F 24.1 °F 70% 30.19 in 10.0 mi NE 9.2 mph - 0.00 in   Overcast
1:53 AM 33.1 °F 26.1 °F 24.1 °F 70% 30.19 in 10.0 mi ENE 8.1 mph - 0.00 in   Overcast
2:53 AM 32.0 °F 24.2 °F 25.0 °F 75% 30.18 in 10.0 mi ENE 9.2 mph - 0.01 in Rain Light Rain
3:53 AM 32.0 °F 23.0 °F 26.1 °F 79% 30.15 in 10.0 mi ENE 11.5 mph - 0.00 in   Overcast
4:53 AM 32.0 °F 23.6 °F 26.1 °F 79% 30.13 in 10.0 mi ENE 10.4 mph - 0.01 in   Overcast
5:53 AM 32.0 °F 23.6 °F 25.0 °F 75% 30.12 in 10.0 mi East 10.4 mph - 0.00 in   Overcast
6:53 AM 33.1 °F 24.9 °F 25.0 °F 72% 30.09 in 10.0 mi East 10.4 mph - N/A   Overcast
7:53 AM 34.0 °F 25.5 °F 25.0 °F 70% 30.07 in 10.0 mi East 11.5 mph - N/A   Overcast
8:53 AM 36.0 °F 27.5 °F 25.0 °F 64% 30.04 in 10.0 mi East 12.7 mph - N/A   Overcast
9:53 AM 37.0 °F 27.7 °F 24.1 °F 59% 29.96 in 10.0 mi ESE 16.1 mph - 0.00 in   Overcast
10:53 AM 37.9 °F 30.5 °F 26.1 °F 62% 29.91 in 10.0 mi ESE 11.5 mph - 0.02 in Rain Light Rain
11:19 AM 37.4 °F 31.4 °F 26.6 °F 65% 29.91 in 10.0 mi ESE 8.1 mph - 0.02 in Rain , Thunderstorm Light Rain
11:46 AM 37.4 °F - 28.4 °F 70% 29.91 in 6.0 mi Calm Calm - 0.07 in Rain Light Rain
11:53 AM 37.0 °F 34.5 °F 28.9 °F 73% 29.91 in 3.0 mi East 3.5 mph - 0.11 in Rain , Thunderstorm Thunderstorms and Rain
11:57 AM 35.6 °F 32.8 °F 30.2 °F 81% 29.93 in 1.8 mi West 3.5 mph - 0.03 in Rain , Thunderstorm Heavy Thunderstorms and Rain
12:09 PM 35.6 °F 30.7 °F 32.0 °F 87% 29.89 in 3.0 mi ENE 5.8 mph - 0.06 in Rain , Thunderstorm Rain
12:21 PM 35.6 °F - 32.0 °F 87% 29.92 in 4.0 mi Calm Calm - 0.10 in Rain Rain
12:25 PM 35.6 °F - 33.8 °F 93% 29.91 in 2.5 mi Calm Calm - 0.12 in Rain Rain
12:41 PM 35.6 °F 29.2 °F 33.8 °F 93% 29.88 in 2.5 mi East 8.1 mph - 0.18 in Rain , Thunderstorm Rain
12:51 PM 35.6 °F 28.6 °F 33.8 °F 93% 29.89 in 3.0 mi ENE 9.2 mph - 0.23 in Rain , Thunderstorm Rain
12:53 PM 35.1 °F 26.9 °F 33.1 °F 92% 29.89 in 3.0 mi East 11.5 mph - 0.24 in Rain , Thunderstorm Rain
1:08 PM 35.6 °F 28.6 °F 33.8 °F 93% 29.89 in 1.8 mi NE 9.2 mph - 0.11 in Rain , Thunderstorm Heavy Rain
1:22 PM 33.8 °F 25.3 °F 33.8 °F 100% 29.85 in 3.0 mi ENE 11.5 mph - 0.18 in Rain , Thunderstorm Light Thunderstorms and Rain
1:30 PM 35.6 °F 26.6 °F 33.8 °F 93% 29.83 in 5.0 mi East 13.8 mph - 0.19 in Rain , Thunderstorm Light Thunderstorms and Rain
1:37 PM 35.6 °F 26.2 °F 33.8 °F 93% 29.80 in 5.0 mi East 15.0 mph - 0.23 in Rain Light Rain
1:46 PM 35.6 °F 28.6 °F 33.8 °F 93% 29.82 in 2.5 mi East 9.2 mph - 0.28 in Rain , Thunderstorm Light Rain
1:53 PM 35.1 °F 28.6 °F 34.0 °F 96% 29.81 in 2.5 mi East 8.1 mph - 0.31 in Rain , Thunderstorm Thunderstorms and Rain
2:00 PM 35.6 °F 28.6 °F 35.6 °F 100% 29.81 in 4.0 mi East 9.2 mph - 0.02 in Rain , Thunderstorm Light Thunderstorms and Rain
2:04 PM 35.6 °F 28.6 °F 35.6 °F 100% 29.81 in 5.0 mi East 9.2 mph - 0.02 in Rain , Thunderstorm Light Rain
2:25 PM 37.4 °F 29.8 °F 35.6 °F 93% 29.79 in 5.0 mi East 11.5 mph - 0.07 in Rain Light Rain
2:32 PM 37.4 °F 29.8 °F 35.6 °F 93% 29.79 in 6.0 mi East 11.5 mph - 0.09 in Rain Light Rain
2:53 PM 37.9 °F 30.0 °F 36.0 °F 93% 29.78 in 10.0 mi ESE 12.7 mph - 0.12 in Rain Light Rain
3:53 PM 39.9 °F 34.5 °F 37.0 °F 89% 29.80 in 8.0 mi ESE 8.1 mph - 0.06 in Rain Light Rain
4:53 PM 39.9 °F 33.9 °F 37.9 °F 93% 29.78 in 10.0 mi East 9.2 mph - 0.01 in   Overcast
5:53 PM 42.1 °F 37.1 °F 39.9 °F 92% 29.77 in 10.0 mi ESE 8.1 mph - 0.00 in   Overcast
6:53 PM 43.0 °F 35.7 °F 41.0 °F 93% 29.75 in 7.0 mi SE 15.0 mph - 0.03 in Rain Light Rain
7:10 PM 42.8 °F 40.1 °F 42.8 °F 100% 29.78 in 10.0 mi Variable 4.6 mph - 0.00 in   Overcast
7:28 PM 39.2 °F 31.6 °F 39.2 °F 100% 29.82 in 4.0 mi NW 12.7 mph - 0.03 in Rain Light Rain
7:51 PM 39.2 °F 35.9 °F 39.2 °F 100% 29.81 in 4.0 mi Variable 4.6 mph - 0.06 in Rain Light Rain
7:53 PM 39.0 °F 35.7 °F 39.0 °F 100% 29.81 in 5.0 mi North 4.6 mph - 0.06 in Rain Light Rain
8:01 PM 39.2 °F 35.0 °F 39.2 °F 100% 29.80 in 6.0 mi NNE 5.8 mph - 0.00 in Rain Light Rain
8:10 PM 37.4 °F 31.4 °F 37.4 °F 100% 29.78 in 5.0 mi NE 8.1 mph - 0.00 in   Overcast
8:53 PM 39.0 °F - 39.0 °F 100% 29.82 in 7.0 mi Calm Calm - 0.00 in   Overcast
9:01 PM 39.2 °F - 39.2 °F 100% 29.82 in 6.0 mi Calm Calm - 0.00 in Rain Light Rain
9:38 PM 39.2 °F 35.9 °F 37.4 °F 93% 29.86 in 6.0 mi NW 4.6 mph - 0.00 in   Overcast
10:25 PM 37.4 °F 32.8 °F 37.4 °F 100% 29.87 in 8.0 mi WNW 5.8 mph - N/A   Overcast
10:53 PM 37.9 °F 33.5 °F 37.0 °F 97% 29.88 in 9.0 mi WNW 5.8 mph - N/A   Overcast
11:53 PM 37.0 °F - 37.0 °F 100% 29.89 in 8.0 mi Calm Calm - N/A   Overcast